2024-211C

Last updated on Sun Nov 17 2024 00:02:06 GMT+0000 (Coordinated Universal Time)

1 61985U 24211C 24321.05733426 .06535601 67804-5 64259-2 0 9995 2 61985 41.3274 236.8970 0201055 154.0638 220.8822 15.81106896 51

Satellite not in orbit